Time,TemperatureF,DewpointF,PressureIn,WindDirection,WindDirectionDegrees,WindSpeedMPH,WindSpeedGustMPH,Humidity,HourlyPrecipIn,Conditions,Clouds,dailyrainin,SoftwareType,DateUTC
2014-10-01 00:01:00,52.9,38.0,29.48,NW,313,0.0,-999.0,57,-99.99,,,0.01,weatherlink.com 1.10,2014-10-01 06:01:00,
2014-10-01 00:16:00,51.7,38.0,29.49,NW,313,0.0,-999.0,61,-99.99,,,0.01,weatherlink.com 1.10,2014-10-01 06:16:00,
2014-10-01 00:31:00,51.3,37.0,29.49,West,263,1.0,-999.0,59,-99.99,,,0.01,weatherlink.com 1.10,2014-10-01 06:31:00,
2014-10-01 00:46:00,52.2,37.0,29.48,West,281,1.0,-999.0,57,-99.99,,,0.01,weatherlink.com 1.10,2014-10-01 06:46:00,
2014-10-01 01:01:00,52.4,37.0,29.48,West,272,3.0,-999.0,57,-99.99,,,0.01,weatherlink.com 1.10,2014-10-01 07:01:00,
2014-10-01 01:16:00,51.7,37.0,29.48,WNW,284,1.0,-999.0,58,-99.99,,,0.01,weatherlink.com 1.10,2014-10-01 07:16:00,
2014-10-01 01:31:00,50.8,38.0,29.49,NNE,30,2.0,-999.0,61,-99.99,,,0.00,weatherlink.com 1.10,2014-10-01 07:31:00,
2014-10-01 01:46:00,49.8,39.0,29.48,South,175,4.0,-999.0,66,-99.99,,,0.00,weatherlink.com 1.10,2014-10-01 07:46:00,
2014-10-01 02:01:00,49.6,38.0,29.48,South,181,2.0,-999.0,65,-99.99,,,0.00,weatherlink.com 1.10,2014-10-01 08:01:00,
2014-10-01 02:16:00,49.9,37.0,29.48,SW,220,0.0,-999.0,62,-99.99,,,0.00,weatherlink.com 1.10,2014-10-01 08:16:00,
2014-10-01 02:31:00,50.3,37.0,29.48,SW,221,0.0,-999.0,60,-99.99,,,0.00,weatherlink.com 1.10,2014-10-01 08:31:00,
2014-10-01 02:46:00,50.5,39.0,29.48,SW,221,1.0,-999.0,64,-99.99,,,0.00,weatherlink.com 1.10,2014-10-01 08:46:00,
2014-10-01 03:01:00,49.4,37.0,29.48,SSW,211,0.0,-999.0,63,-99.99,,,0.00,weatherlink.com 1.10,2014-10-01 09:01:00,
2014-10-01 03:16:00,49.7,37.0,29.48,SSW,194,0.0,-999.0,62,-99.99,,,0.00,weatherlink.com 1.10,2014-10-01 09:16:00,
2014-10-01 03:31:00,49.7,37.0,29.47,SSW,204,0.0,-999.0,61,-99.99,,,0.00,weatherlink.com 1.10,2014-10-01 09:31:00,
2014-10-01 03:46:00,50.3,36.0,29.47,WSW,246,0.0,-999.0,58,-99.99,,,0.00,weatherlink.com 1.10,2014-10-01 09:46:00,
2014-10-01 04:01:00,50.1,38.0,29.46,SSW,200,0.0,-999.0,64,-99.99,,,0.00,weatherlink.com 1.10,2014-10-01 10:01:00,
2014-10-01 04:16:00,47.9,38.0,29.49,SSE,164,0.0,-999.0,68,-99.99,,,0.00,weatherlink.com 1.10,2014-10-01 10:16:00,
2014-10-01 04:31:00,47.1,38.0,29.49,South,190,0.0,-999.0,70,-99.99,,,0.00,weatherlink.com 1.10,2014-10-01 10:31:00,
2014-10-01 04:46:00,46.4,39.0,29.50,South,190,0.0,-999.0,76,-99.99,,,0.00,weatherlink.com 1.10,2014-10-01 10:46:00,
2014-10-01 05:01:00,46.1,39.0,29.51,South,186,0.0,-999.0,77,-99.99,,,0.00,weatherlink.com 1.10,2014-10-01 11:01:00,
2014-10-01 05:17:00,45.8,38.0,29.51,SE,144,0.0,-999.0,75,-99.99,,,0.00,weatherlink.com 1.10,2014-10-01 11:17:00,
2014-10-01 05:32:00,46.2,40.0,29.52,SE,144,0.0,-999.0,78,-99.99,,,0.00,weatherlink.com 1.10,2014-10-01 11:32:00,
2014-10-01 05:47:00,47.0,39.0,29.52,SE,144,0.0,-999.0,74,-99.99,,,0.00,weatherlink.com 1.10,2014-10-01 11:47:00,
2014-10-01 06:02:00,47.4,38.0,29.52,SE,145,0.0,-999.0,70,-99.99,,,0.00,weatherlink.com 1.10,2014-10-01 12:02:00,
2014-10-01 06:17:00,47.9,36.0,29.51,SE,145,0.0,-999.0,64,-99.99,,,0.00,weatherlink.com 1.10,2014-10-01 12:17:00,
2014-10-01 06:32:00,45.6,39.0,29.54,SE,143,0.0,-999.0,78,-99.99,,,0.00,weatherlink.com 1.10,2014-10-01 12:32:00,
2014-10-01 06:47:00,45.7,38.0,29.56,WSW,249,0.0,-999.0,75,-99.99,,,0.00,weatherlink.com 1.10,2014-10-01 12:47:00,
2014-10-01 07:02:00,46.9,38.0,29.55,WSW,250,0.0,-999.0,71,-99.99,,,0.00,weatherlink.com 1.10,2014-10-01 13:02:00,
2014-10-01 07:17:00,47.7,38.0,29.54,West,269,0.0,-999.0,70,-99.99,,,0.00,weatherlink.com 1.10,2014-10-01 13:17:00,
2014-10-01 07:32:00,48.4,39.0,29.55,West,272,0.0,-999.0,69,-99.99,,,0.00,weatherlink.com 1.10,2014-10-01 13:32:00,
2014-10-01 07:47:00,48.9,38.0,29.56,West,272,0.0,-999.0,67,-99.99,,,0.00,weatherlink.com 1.10,2014-10-01 13:47:00,
2014-10-01 08:02:00,49.3,39.0,29.56,WNW,294,0.0,-999.0,67,-99.99,,,0.00,weatherlink.com 1.10,2014-10-01 14:02:00,
2014-10-01 08:17:00,50.0,39.0,29.55,WNW,296,0.0,-999.0,67,-99.99,,,0.00,weatherlink.com 1.10,2014-10-01 14:17:00,
2014-10-01 08:32:00,51.1,39.0,29.54,WNW,292,0.0,-999.0,63,-99.99,,,0.00,weatherlink.com 1.10,2014-10-01 14:32:00,
2014-10-01 08:47:00,52.1,39.0,29.54,WNW,292,0.0,-999.0,62,-99.99,,,0.00,weatherlink.com 1.10,2014-10-01 14:47:00,
2014-10-01 09:02:00,51.3,43.0,29.54,WNW,292,0.0,-999.0,72,-99.99,,,0.00,weatherlink.com 1.10,2014-10-01 15:02:00,
2014-10-01 09:17:00,50.9,43.0,29.54,South,188,1.0,-999.0,74,-99.99,,,0.00,weatherlink.com 1.10,2014-10-01 15:17:00,
2014-10-01 09:32:00,53.4,42.0,29.52,SSE,158,4.0,-999.0,65,-99.99,,,0.00,weatherlink.com 1.10,2014-10-01 15:32:00,
2014-10-01 09:47:00,55.5,42.0,29.52,SSE,155,5.0,-999.0,60,-99.99,,,0.00,weatherlink.com 1.10,2014-10-01 15:47:00,
2014-10-01 10:02:00,56.5,41.0,29.51,SE,139,0.0,-999.0,57,-99.99,,,0.00,weatherlink.com 1.10,2014-10-01 16:02:00,
2014-10-01 10:17:00,56.0,40.0,29.51,SE,144,0.0,-999.0,56,-99.99,,,0.00,weatherlink.com 1.10,2014-10-01 16:17:00,
2014-10-01 10:32:00,58.1,41.0,29.51,SSE,148,7.0,-999.0,53,-99.99,,,0.00,weatherlink.com 1.10,2014-10-01 16:32:00,
2014-10-01 10:47:00,58.2,39.0,29.50,SE,145,0.0,-999.0,49,-99.99,,,0.00,weatherlink.com 1.10,2014-10-01 16:47:00,
2014-10-01 11:02:00,60.3,40.0,29.49,SE,129,0.0,-999.0,47,-99.99,,,0.00,weatherlink.com 1.10,2014-10-01 17:02:00,
2014-10-01 11:17:00,63.6,41.0,29.47,ENE,77,0.0,-999.0,43,-99.99,,,0.00,weatherlink.com 1.10,2014-10-01 17:17:00,
2014-10-01 11:32:00,64.7,41.0,29.45,East,80,0.0,-999.0,42,-99.99,,,0.00,weatherlink.com 1.10,2014-10-01 17:32:00,
2014-10-01 11:47:00,64.8,40.0,29.46,East,80,0.0,-999.0,40,-99.99,,,0.00,weatherlink.com 1.10,2014-10-01 17:47:00,
2014-10-01 12:02:00,64.0,40.0,29.47,SSE,160,0.0,-999.0,41,-99.99,,,0.00,weatherlink.com 1.10,2014-10-01 18:02:00,
2014-10-01 12:17:00,63.9,37.0,29.46,ESE,103,0.0,-999.0,37,-99.99,,,0.00,weatherlink.com 1.10,2014-10-01 18:17:00,
2014-10-01 12:32:00,66.7,39.0,29.44,ENE,59,0.0,-999.0,37,-99.99,,,0.00,weatherlink.com 1.10,2014-10-01 18:32:00,
2014-10-01 12:47:00,67.4,41.0,29.43,ENE,68,0.0,-999.0,39,-99.99,,,0.00,weatherlink.com 1.10,2014-10-01 18:47:00,
2014-10-01 13:17:00,67.2,43.0,29.41,North,360,0.0,-999.0,41,-99.99,,,0.00,weatherlink.com 1.10,2014-10-01 19:17:00,
2014-10-01 13:32:00,66.5,42.0,29.40,NNE,22,0.0,-999.0,41,-99.99,,,0.00,weatherlink.com 1.10,2014-10-01 19:32:00,
2014-10-01 13:47:00,66.9,40.0,29.40,North,360,0.0,-999.0,38,-99.99,,,0.00,weatherlink.com 1.10,2014-10-01 19:47:00,